| time (UTC) | temp F | wind direction | speed knots | gust knots | rain 1hr in | rain 24hr in | rain mn in | humidity % | barometer mb |
| 20260506024617 | 56 | 144 | 6.1 | 8.7 | 0.00 | 0.59 | 0.00 | 99 | 1011.2 |
| 20260506023537 | 56 | 139 | 4.3 | 7.8 | 0.00 | 0.59 | 0.00 | 99 | 1011.1 |
| 20260506022618 | 56 | 104 | 5.2 | 7.0 | 0.00 | 0.59 | 0.00 | 99 | 1011.3 |
| 20260506021532 | 56 | 104 | 5.2 | 7.8 | 0.00 | 0.59 | 0.00 | 99 | 1011.4 |
| 20260506020550 | 56 | 95 | 2.6 | 5.2 | 0.00 | 0.59 | 0.00 | 99 | 1011.7 |
| 20260506015554 | 56 | 102 | 2.6 | 5.2 | 0.00 | 0.59 | 0.00 | 99 | 1011.6 |
| 20260506014532 | 56 | 80 | 0.9 | 1.7 | 0.00 | 0.59 | 0.00 | 99 | 1011.5 |
| 20260506013611 | 56 | 89 | 1.7 | 2.6 | 0.00 | 0.59 | 0.00 | 99 | 1011.3 |
| 20260506012618 | 56 | 87 | 2.6 | 2.6 | 0.00 | 0.59 | 0.00 | 99 | 1011.7 |
| 20260506011532 | 56 | 82 | 2.6 | 4.3 | 0.00 | 0.59 | 0.00 | 99 | 1011.5 |
| 20260506010618 | 56 | 82 | 2.6 | 5.2 | 0.00 | 0.59 | 0.00 | 99 | 1011.4 |
| 20260506005538 | 56 | 103 | 1.7 | 2.6 | 0.00 | 0.59 | 0.00 | 99 | 1011.5 |
| 20260506004601 | 56 | 102 | 2.6 | 5.2 | 0.00 | 0.59 | 0.00 | 99 | 1011.7 |
| 20260506003521 | 56 | 117 | 3.5 | 5.2 | 0.00 | 0.59 | 0.00 | 99 | 1012.1 |
| 20260506002545 | 56 | 101 | 4.3 | 7.0 | 0.00 | 0.59 | 0.00 | 99 | 1012.2 |
| 20260506001610 | 56 | 132 | 5.2 | 7.0 | 0.00 | 0.59 | 0.00 | 99 | 1012.3 |
| 20260506000530 | 56 | 127 | 4.3 | 6.1 | 0.00 | 0.59 | 0.00 | 99 | 1012.4 |
| 20260505235554 | 56 | 122 | 3.5 | 5.2 | 0.00 | 0.59 | 0.00 | 99 | 1012.4 |
| 20260505234618 | 56 | 97 | 1.7 | 2.6 | 0.00 | 0.59 | 0.00 | 99 | 1012.6 |
| 20260505233537 | 56 | 103 | 2.6 | 5.2 | 0.00 | 0.59 | 0.00 | 99 | 1012.7 |
| 20260505232601 | 56 | 91 | 1.7 | 1.7 | 0.00 | 0.59 | 0.00 | 99 | 1012.5 |
| 20260505231521 | 56 | 48 | 0.9 | 1.7 | 0.00 | 0.59 | 0.00 | 99 | 1012.6 |
| 20260505230605 | 56 | 83 | 1.7 | 4.3 | 0.00 | 0.59 | 0.00 | 99 | 1012.7 |
| 20260505225630 | 56 | 93 | 2.6 | 4.3 | 0.00 | 0.59 | 0.00 | 99 | 1012.8 |
| 20260505224530 | 56 | 63 | 0.0 | 0.9 | 0.00 | 0.59 | 0.00 | 99 | 1012.9 |
| 20260505223554 | 56 | 0.0 | 0.0 | 0.00 | 0.59 | 0.00 | 99 | 1012.8 | |
| 20260505222618 | 56 | 0.0 | 0.0 | 0.00 | 0.59 | 0.00 | 99 | 1012.9 | |
| 20260505221538 | 56 | 43 | 0.0 | 0.9 | 0.00 | 0.59 | 0.00 | 99 | 1013.0 |
| 20260505220601 | 56 | 0.0 | 0.0 | 0.00 | 0.59 | 0.00 | 99 | 1013.1 | |
| 20260505215521 | 56 | 74 | 0.9 | 1.7 | 0.01 | 0.59 | 0.59 | 99 | 1013.1 |
| 20260505214546 | 56 | 76 | 0.9 | 1.7 | 0.01 | 0.59 | 0.59 | 99 | 1013.2 |
| 20260505213609 | 56 | 74 | 0.0 | 0.9 | 0.04 | 0.59 | 0.59 | 99 | 1013.3 |
| 20260505212529 | 56 | 0.0 | 0.0 | 0.10 | 0.59 | 0.59 | 99 | 1013.6 | |
| 20260505211613 | 56 | 73 | 0.0 | 1.7 | 0.18 | 0.59 | 0.59 | 99 | 1013.5 |
| 20260505210617 | 56 | 343 | 0.0 | 0.9 | 0.19 | 0.59 | 0.59 | 99 | 1013.6 |
| 20260505205638 | 56 | 0.0 | 0.0 | 0.18 | 0.58 | 0.58 | 99 | 1013.7 | |
| 20260505204602 | 56 | 0.0 | 0.0 | 0.19 | 0.58 | 0.58 | 99 | 1013.8 | |
| 20260505203541 | 56 | 0.0 | 0.0 | 0.16 | 0.55 | 0.55 | 99 | 1013.6 | |
| 20260505202545 | 56 | 84 | 0.9 | 1.7 | 0.11 | 0.49 | 0.49 | 99 | 1013.8 |
| 20260505201609 | 56 | 87 | 1.7 | 2.6 | 0.03 | 0.41 | 0.41 | 99 | 1013.8 |
| 20260505200529 | 56 | 90 | 1.7 | 1.7 | 0.02 | 0.40 | 0.40 | 99 | 1013.9 |
| 20260505195554 | 56 | 82 | 0.9 | 2.6 | 0.03 | 0.40 | 0.40 | 99 | 1013.6 |
| 20260505194638 | 56 | 109 | 1.7 | 2.6 | 0.02 | 0.39 | 0.39 | 99 | 1013.6 |
| 20260505193538 | 56 | 87 | 2.6 | 2.6 | 0.02 | 0.39 | 0.39 | 99 | 1013.6 |
| 20260505192601 | 56 | 101 | 0.9 | 1.7 | 0.01 | 0.38 | 0.38 | 99 | 1013.6 |
| 20260505191521 | 56 | 99 | 1.7 | 2.6 | 0.01 | 0.38 | 0.38 | 99 | 1013.5 |
| 20260505190546 | 56 | 92 | 0.9 | 1.7 | 0.01 | 0.38 | 0.38 | 99 | 1013.3 |
| 20260505185629 | 56 | 71 | 0.9 | 1.7 | 0.00 | 0.37 | 0.37 | 99 | 1013.2 |
| 20260505184530 | 56 | 73 | 0.9 | 1.7 | 0.00 | 0.37 | 0.37 | 99 | 1013.1 |
| 20260505183614 | 56 | 98 | 1.7 | 1.7 | 0.01 | 0.37 | 0.37 | 99 | 1013.2 |
| 20260505182618 | 56 | 88 | 0.9 | 2.6 | 0.01 | 0.37 | 0.37 | 99 | 1013.2 |
| 20260505181538 | 56 | 84 | 1.7 | 4.3 | 0.01 | 0.37 | 0.37 | 99 | 1013.2 |
| 20260505180601 | 56 | 97 | 3.5 | 5.2 | 0.01 | 0.37 | 0.37 | 99 | 1013.2 |
| 20260505175522 | 56 | 93 | 3.5 | 5.2 | 0.01 | 0.37 | 0.37 | 99 | 1013.3 |
| 20260505174546 | 56 | 109 | 5.2 | 7.8 | 0.01 | 0.37 | 0.37 | 99 | 1013.2 |
| 20260505173611 | 56 | 102 | 3.5 | 6.1 | 0.00 | 0.36 | 0.36 | 99 | 1013.1 |
| 20260505172550 | 56 | 88 | 1.7 | 6.1 | 0.01 | 0.36 | 0.36 | 99 | 1013.1 |
| 20260505171554 | 56 | 71 | 0.9 | 4.3 | 0.02 | 0.36 | 0.36 | 99 | 1013.3 |
| 20260505170618 | 56 | 118 | 3.5 | 5.2 | 0.02 | 0.36 | 0.36 | 99 | 1013.3 |
| 20260505165538 | 56 | 122 | 3.5 | 5.2 | 0.02 | 0.36 | 0.36 | 99 | 1013.3 |
| 20260505164603 | 56 | 116 | 3.5 | 6.1 | 0.02 | 0.36 | 0.36 | 99 | 1013.4 |
| 20260505163603 | 56 | 100 | 4.3 | 6.1 | 0.02 | 0.36 | 0.36 | 99 | 1013.3 |
| 20260505162547 | 56 | 95 | 3.5 | 5.2 | 0.01 | 0.35 | 0.35 | 99 | 1013.4 |
| 20260505161610 | 56 | 118 | 3.5 | 6.1 | 0.01 | 0.34 | 0.34 | 99 | 1013.5 |
| 20260505160530 | 56 | 107 | 4.3 | 7.8 | 0.01 | 0.34 | 0.34 | 99 | 1013.4 |
| 20260505152532 | 57 | 115 | 4.3 | 6.1 | 0.01 | 0.34 | 0.34 | 99 | 1013.6 |
| 20260505151629 | 57 | 106 | 6.1 | 8.7 | 0.00 | 0.33 | 0.33 | 99 | 1013.7 |
| 20260505150531 | 57 | 94 | 5.2 | 7.0 | 0.00 | 0.33 | 0.33 | 99 | 1013.7 |
| 20260505140530 | 58 | 80 | 3.5 | 5.2 | 0.00 | 0.33 | 0.33 | 99 | 1013.7 |
| 20260505124530 | 57 | 59 | 1.7 | 5.2 | 0.00 | 0.33 | 0.33 | 99 | 1014.2 |
| 20260505123555 | 56 | 90 | 2.6 | 4.3 | 0.00 | 0.33 | 0.33 | 99 | 1014.2 |
| 20260505122618 | 57 | 60 | 2.6 | 5.2 | 0.00 | 0.33 | 0.33 | 99 | 1014.2 |
| 20260505121537 | 57 | 61 | 3.5 | 6.1 | 0.00 | 0.33 | 0.33 | 99 | 1014.0 |
| 20260505120546 | 57 | 58 | 0.9 | 4.3 | 0.00 | 0.33 | 0.33 | 99 | 1014.0 |
| 20260505115610 | 56 | 25 | 3.5 | 5.2 | 0.00 | 0.33 | 0.33 | 99 | 1014.2 |
| 20260505114530 | 56 | 15 | 2.6 | 4.3 | 0.00 | 0.33 | 0.33 | 99 | 1014.1 |
| 20260505113614 | 56 | 37 | 2.6 | 5.2 | 0.00 | 0.33 | 0.33 | 99 | 1014.3 |
| 20260505112618 | 56 | 30 | 0.9 | 4.3 | 0.00 | 0.33 | 0.33 | 99 | 1014.3 |
| 20260505111538 | 55 | 16 | 1.7 | 5.2 | 0.01 | 0.33 | 0.33 | 99 | 1014.4 |
| 20260505110602 | 56 | 15 | 0.9 | 2.6 | 0.03 | 0.33 | 0.33 | 99 | 1014.5 |
| 20260505101614 | 55 | 26 | 1.7 | 2.6 | 0.09 | 0.32 | 0.32 | 99 | 1014.4 |
| 20260505100618 | 55 | 33 | 1.7 | 2.6 | 0.07 | 0.30 | 0.30 | 99 | 1014.5 |
| 20260505095539 | 55 | 328 | 0.9 | 2.6 | 0.06 | 0.28 | 0.28 | 99 | 1014.5 |
| 20260505094604 | 55 | 341 | 0.9 | 1.7 | 0.05 | 0.26 | 0.26 | 99 | 1014.5 |
| 20260505093522 | 55 | 334 | 1.7 | 1.7 | 0.03 | 0.24 | 0.24 | 99 | 1014.4 |
| 20260505092546 | 55 | 360 | 0.9 | 2.6 | 0.03 | 0.24 | 0.24 | 99 | 1014.3 |
| 20260505091554 | 54 | 2 | 0.9 | 1.7 | 0.02 | 0.23 | 0.23 | 99 | 1014.2 |
| 20260505090618 | 55 | 326 | 0.9 | 2.6 | 0.02 | 0.23 | 0.23 | 99 | 1014.3 |
| 20260505085538 | 55 | 340 | 0.9 | 1.7 | 0.01 | 0.22 | 0.22 | 99 | 1014.0 |
| 20260505084546 | 56 | 15 | 0.9 | 0.9 | 0.00 | 0.21 | 0.21 | 99 | 1013.9 |
| 20260505083610 | 56 | 79 | 0.9 | 1.7 | 0.00 | 0.21 | 0.21 | 99 | 1014.1 |
| 20260505082530 | 55 | 60 | 0.9 | 2.6 | 0.01 | 0.21 | 0.21 | 99 | 1013.9 |
| 20260505081614 | 55 | 70 | 0.9 | 1.7 | 0.02 | 0.21 | 0.21 | 99 | 1014.0 |
| 20260505080618 | 55 | 39 | 1.7 | 4.3 | 0.03 | 0.21 | 0.21 | 99 | 1014.1 |
| 20260505075522 | 56 | 19 | 1.7 | 4.3 | 0.06 | 0.21 | 0.21 | 99 | 1014.0 |
| 20260505074547 | 55 | 43 | 0.9 | 2.6 | 0.09 | 0.21 | 0.21 | 99 | 1013.9 |
| 20260505073613 | 55 | 34 | 1.7 | 2.6 | 0.12 | 0.21 | 0.21 | 99 | 1013.6 |
| 20260505072530 | 55 | 40 | 0.9 | 1.7 | 0.13 | 0.20 | 0.20 | 99 | 1013.7 |
| 20260505071554 | 55 | 67 | 0.9 | 1.7 | 0.13 | 0.19 | 0.19 | 99 | 1013.8 |
| 20260505070619 | 55 | 0.0 | 0.0 | 0.14 | 0.18 | 0.18 | 99 | 1013.8 | |
| 20260505065631 | 55 | 0.0 | 0.0 | 0.14 | 0.15 | 0.15 | 99 | 1014.0 | |
| 20260505064618 | 55 | 305 | 0.0 | 0.9 | 0.12 | 0.12 | 0.12 | 99 | 1013.9 |
| 20260505063523 | 55 | 0.0 | 0.0 | 0.09 | 0.09 | 0.09 | 99 | 1013.9 | |
| 20260505062547 | 55 | 299 | 0.9 | 2.6 | 0.07 | 0.07 | 0.07 | 99 | 1014.0 |
| 20260505061554 | 56 | 289 | 0.0 | 0.9 | 0.06 | 0.06 | 0.06 | 99 | 1013.8 |
| 20260505060619 | 56 | 316 | 0.9 | 1.7 | 0.04 | 0.04 | 0.04 | 99 | 1013.9 |
| 20260505055538 | 58 | 338 | 0.0 | 0.9 | 0.01 | 0.01 | 0.01 | 99 | 1013.9 |
| 20260505054602 | 58 | 189 | 0.0 | 0.9 | 0.00 | 0.00 | 0.00 | 99 | 1013.7 |
| 20260505053525 | 58 | 282 | 1.7 | 4.3 | 0.00 | 0.00 | 0.00 | 99 | 1013.6 |
| 20260505052546 | 59 | 340 | 0.9 | 1.7 | 0.00 | 0.00 | 0.00 | 99 | 1013.5 |
| 20260505051610 | 60 | 183 | 1.7 | 2.6 | 0.00 | 0.00 | 0.00 | 99 | 1013.4 |
| 20260505050530 | 60 | 239 | 0.9 | 2.6 | 0.00 | 0.00 | 0.00 | 99 | 1013.3 |
| 20260505041538 | 60 | 340 | 0.0 | 1.7 | 0.00 | 0.00 | 0.00 | 99 | 1013.0 |
| 20260505040602 | 60 | 0.0 | 0.0 | 0.00 | 0.00 | 0.00 | 99 | 1013.0 | |
| 20260505035522 | 60 | 344 | 0.0 | 0.9 | 0.00 | 0.00 | 0.00 | 99 | 1013.0 |
| 20260505034530 | 60 | 350 | 0.0 | 0.9 | 0.00 | 0.00 | 0.00 | 99 | 1012.9 |
| 20260505033554 | 60 | 308 | 0.0 | 0.9 | 0.00 | 0.00 | 0.00 | 99 | 1013.2 |
| 20260505032638 | 60 | 345 | 0.0 | 0.9 | 0.00 | 0.00 | 0.00 | 99 | 1013.3 |
| 20260505031558 | 60 | 105 | 0.0 | 0.9 | 0.00 | 0.00 | 0.00 | 99 | 1013.4 |
| 20260505030602 | 60 | 154 | 0.0 | 0.9 | 0.00 | 0.00 | 0.00 | 99 | 1013.5 |
| 20260505025611 | 60 | 333 | 0.9 | 0.9 | 0.00 | 0.00 | 0.00 | 99 | 1013.5 |